Terug naar catalogus

STARLINK-31625

ActiefCommunicatieVLEO
NORAD 59458·PAYLOAD·🇺🇸 United States

Gelanceerd Apr 10, 2024 vanaf Cape Canaveral Space Force Station

Loading…

Volgende Passages (komende 24 uur)

TLE

VersSource: CelesTrak SupGP

Epoch: Sep 14, 2026, 21:43 UTC

1 59458C 24068D   26257.90534722  .00056023  00000+0  20291-2 0  2573
2 59458  43.0042  46.0078 0001492 272.0900 312.9767 15.27551881    16

Volg STARLINK-31625 in realtime met AllMySat

Download on the App Store